[[{"header":{"parameterUnit":"m.s-1","parameterCategory":1,"la1":30.2991,"la2":30.254,"lo1":-89.0895,"lo2":-89.0444,"dy":0.0017,"dx":0.0017,"nx":28,"ny":28,"refTime":"2024-02-10T09:00:00:Z","depth":0,"parameterNumber":2,"parameterNumberName":"U-component_of_WINDS"},"data":[0,0,0,0,0,0,0,0,0,0,0,0,0,0,0,0,0,0,0,0,0,0,0,0,0,0,0,0,0,0,0,0,0,0,0,0,0,0,0,0,0,0,0,0,0,0,0,0,0,0,0,0,0,0,0,0,0,0,-0.9671,-0.9672,0,-0.9741,-0.9742,-0.9742,-0.9782,-0.9783,-0.9783,-0.9783,-0.9852,-0.9854,-0.9855,0,0,0,0,0,0,0,0,0,0,0,0,0,-0.9571,-0.9572,-0.9671,-0.9672,-0.9673,-0.9741,-0.9742,-0.9743,-0.9782,-0.9783,-0.9783,-0.9783,-0.9851,-0.9853,-0.9855,0,0,0,0,0,0,0,0,0,0,0,0,0,-0.9625,-0.9573,-0.9671,-0.9701,-0.9704,-0.974,-0.9742,-0.9743,-0.9782,-0.9783,-0.9783,-0.9783,-0.9851,-0.9853,-0.9856,-0.9867,0,0,-0.9864,-0.9865,0,0,0,0,0,0,0,0,-0.9622,-0.9628,-0.9696,-0.9699,-0.9703,-0.9753,-0.9732,-0.9784,-0.9782,-0.9753,-0.9783,-0.9783,-0.9819,-0.9824,-0.9836,-0.987,-0.9873,-0.9864,-0.9865,-0.9866,-0.9867,0,0,0,0,0,0,0,-0.9618,-0.9626,-0.9699,-0.9697,-0.9701,-0.971,-0.9718,-0.9742,-0.9783,-0.9755,-0.9758,-0.9766,-0.9821,-0.9834,-0.9838,-0.9874,-0.9864,-0.9866,-0.9867,-0.9868,-0.992,-0.992,0,0,0,0,0,0,-0.961,-0.9622,-0.9696,-0.9701,-0.9662,-0.9712,-0.9721,-0.9737,-0.9783,-0.9791,-0.9766,-0.9768,-0.9829,-0.9835,-0.9841,-0.9857,-0.9866,-0.9869,-0.987,-0.992,-0.992,-0.9919,0,0,0,0,0,0,-0.9607,-0.9616,-0.9694,-0.9662,-0.9673,-0.9713,-0.9731,-0.9738,-0.9751,-0.9791,-0.9799,-0.9772,-0.983,-0.9837,-0.986,-0.986,-0.987,-0.9872,-0.992,-0.992,-0.992,-0.9888,0,0,0,0,0,0,-0.9604,-0.9615,-0.962,-0.9662,-0.9674,-0.9712,-0.9731,-0.9739,-0.9756,-0.9759,-0.9799,-0.9806,-0.9831,-0.9856,-0.9863,-0.9863,-0.9874,-0.992,-0.992,-0.992,-0.9889,-0.9887,-0.9885,0,0,0,0,0,-0.96,-0.9608,-0.962,-0.9628,-0.9682,-0.9712,-0.9719,-0.9748,-0.9756,-0.9761,-0.9786,-0.9804,-0.9859,-0.9858,-0.9866,-0.9867,-0.992,-0.992,-0.992,-0.989,-0.9887,-0.9885,0,0,0,0,0,0,-0.9563,-0.9614,-0.9628,-0.9649,-0.9676,-0.9719,-0.9726,-0.9744,-0.9769,-0.977,-0.9805,-0.9814,-0.9833,-0.9853,-0.9851,-0.988,-0.9892,-0.9893,-0.9867,-0.9864,-0.9862,-0.9856,-0.9876,0,0,0,0,0,-0.9558,-0.9579,-0.9621,-0.9636,-0.9649,-0.9685,-0.9699,-0.972,-0.9749,-0.976,-0.9787,-0.9814,-0.9838,-0.9852,-0.9876,-0.9893,-0.9902,-0.9897,-0.9895,-0.9893,-0.9893,-0.9904,-0.9902,-0.9918,-0.9918,-0.9918,0,0,-0.9546,-0.9576,-0.9587,-0.9629,-0.9653,-0.9673,-0.9694,-0.9715,-0.973,-0.9763,-0.9786,-0.9807,-0.984,-0.9859,-0.987,-0.9876,-0.9891,-0.9892,-0.989,-0.9892,-0.9903,-0.9902,-0.99,-0.9918,-0.9918,-0.9918,0,0,-0.9535,-0.9561,-0.9576,-0.9599,-0.9634,-0.9658,-0.9661,-0.9701,-0.9717,-0.9741,-0.9766,-0.9784,-0.9823,-0.9846,-0.9862,-0.986,-0.9877,-0.9866,-0.9854,-0.9863,-0.9862,-0.9861,-0.986,-0.9859,-0.9867,-0.9867,-0.9866,0,-0.9516,-0.9549,-0.9581,-0.96,-0.9618,-0.9649,-0.9664,-0.9684,-0.9725,-0.9736,-0.9743,-0.9793,-0.9817,-0.9843,-0.9842,-0.9855,-0.9859,-0.9862,-0.986,-0.9859,-0.9859,-0.9858,-0.9858,-0.9865,-0.9865,-0.9865,-0.9865,0,-0.9523,-0.9545,-0.9553,-0.9592,-0.9611,-0.9628,-0.9662,-0.9676,-0.9695,-0.9718,-0.9742,-0.9772,-0.9802,-0.981,-0.9828,-0.9838,-0.9841,-0.9853,-0.9865,-0.9855,-0.9855,-0.9855,-0.9863,-0.9863,-0.9864,-0.9864,0,0,-0.9491,-0.9548,-0.955,-0.9568,-0.9609,-0.9627,-0.9645,-0.9675,-0.9687,-0.9714,-0.973,-0.9763,-0.9775,-0.9793,-0.9814,-0.9823,-0.9819,-0.9834,-0.9836,-0.983,-0.9831,-0.9821,-0.982,-0.9831,-0.9831,-0.9831,-0.9828,0,-0.9486,-0.9521,-0.955,-0.9574,-0.9594,-0.9624,-0.964,-0.9667,-0.9689,-0.9709,-0.9733,-0.9756,-0.977,-0.9781,-0.9791,-0.9817,-0.9819,-0.9818,-0.9845,-0.9846,-0.9836,-0.982,-0.9809,-0.9805,-0.9828,-0.9828,-0.9828,0,-0.9484,-0.9511,-0.9537,-0.9576,-0.9586,-0.9599,-0.9629,-0.9649,-0.9679,-0.9695,-0.9715,-0.9738,-0.9758,-0.9768,-0.9796,-0.9794,-0.9807,-0.9822,-0.9822,-0.9825,-0.9836,-0.9822,-0.9805,-0.9804,-0.9829,-0.9829,-0.9829,0,-0.9457,-0.95,-0.9521,-0.9535,-0.9582,-0.959,-0.961,-0.9641,-0.9657,-0.9684,-0.9694,-0.9722,-0.9737,-0.9758,-0.9787,-0.9792,-0.9812,-0.9824,-0.9825,-0.9824,-0.9827,-0.9826,-0.9811,-0.9836,-0.9836,-0.9836,-0.9836,0,-0.9448,-0.9463,-0.9509,-0.9522,-0.9539,-0.9572,-0.9588,-0.961,-0.9638,-0.9655,-0.9683,-0.9698,-0.9736,-0.9755,-0.9778,-0.9798,-0.9804,-0.9817,-0.9823,-0.9814,-0.9812,-0.9823,-0.9823,-0.9836,-0.9836,-0.9836,-0.9836,0,-0.9421,-0.9452,-0.9477,-0.9519,-0.953,-0.9541,-0.9577,-0.959,-0.9614,-0.9635,-0.9642,-0.9679,-0.9704,-0.9735,-0.977,-0.9785,-0.9802,-0.9811,-0.9792,-0.9795,-0.9793,-0.9793,-0.9783,-0.9784,-0.9809,-0.9809,-0.9808,0,-0.9413,-0.9425,-0.9468,-0.9482,-0.9501,-0.9523,-0.954,-0.9573,-0.9589,-0.9626,-0.9634,-0.9662,-0.9685,-0.9723,-0.9753,-0.978,-0.9789,-0.9784,-0.9793,-0.9784,-0.9789,-0.9787,-0.9788,-0.9781,-0.9781,-0.9781,-0.978,0,-0.9395,-0.941,-0.9433,-0.9462,-0.9482,-0.9506,-0.9532,-0.9541,-0.958,-0.9597,-0.9623,-0.9641,-0.9677,-0.9703,-0.9734,-0.9754,-0.9773,-0.9777,-0.9779,-0.977,-0.9758,-0.9764,-0.9785,-0.9777,-0.9778,-0.9778,-0.9778,-0.9778,-0.9376,-0.9388,-0.9421,-0.9446,-0.9469,-0.9492,-0.9507,-0.9533,-0.9555,-0.9587,-0.9605,-0.9631,-0.9661,-0.9705,-0.9724,-0.9744,-0.9751,-0.9753,-0.9753,-0.9753,-0.975,-0.9755,-0.975,-0.975,-0.975,-0.975,-0.975,0,-0.9359,-0.9382,-0.9405,-0.944,-0.9459,-0.9477,-0.9506,-0.9521,-0.9544,-0.9571,-0.9594,-0.9623,-0.9649,-0.9681,-0.9709,-0.9719,-0.9729,-0.9725,-0.9725,-0.9729,-0.9743,-0.9738,-0.9717,-0.9717,-0.9717,-0.9717,-0.9717,-0.9717,-0.9352,-0.9373,-0.9392,-0.9425,-0.9448,-0.9473,-0.9488,-0.951,-0.9531,-0.9564,-0.9586,-0.9607,-0.9636,-0.9666,-0.9691,-0.9699,-0.9708,-0.9702,-0.9713,-0.9725,-0.9728,-0.9731,-0.9727,-0.9704,-0.9704,-0.9698,-0.9698,-0.9698]},{"header":{"parameterUnit":"m.s-1","parameterCategory":1,"la1":30.2991,"la2":30.254,"lo1":-89.0895,"lo2":-89.0444,"dy":0.0017,"dx":0.0017,"nx":28,"ny":28,"refTime":"2024-02-10T09:00:00:Z","depth":0,"parameterNumber":3,"parameterNumberName":"V-component_of_WINDS"},"data":[0,0,0,0,0,0,0,0,0,0,0,0,0,0,0,0,0,0,0,0,0,0,0,0,0,0,0,0,0,0,0,0,0,0,0,0,0,0,0,0,0,0,0,0,0,0,0,0,0,0,0,0,0,0,0,0,0,0,3.9843,3.9844,0,3.9983,3.9984,3.9986,4.0011,4.001,4.0009,4.0008,4.0149,4.0153,4.0158,0,0,0,0,0,0,0,0,0,0,0,0,0,3.9597,3.9601,3.9843,3.9845,3.9846,3.9982,3.9984,3.9986,4.0011,4.001,4.0009,4.0007,4.0147,4.0153,4.0159,0,0,0,0,0,0,0,0,0,0,0,0,0,3.9717,3.9602,3.9842,3.9875,3.988,3.9982,3.9984,3.9987,4.0012,4.001,4.0008,4.0007,4.0145,4.0152,4.0159,4.0238,0,0,4.0182,4.0185,0,0,0,0,0,0,0,0,3.971,3.9726,3.9869,3.9873,3.9878,3.9978,3.9949,4.0071,4.0012,3.9961,4.0008,4.0006,4.0093,4.0105,4.0134,4.0245,4.0251,4.0182,4.0187,4.019,4.0192,0,0,0,0,0,0,0,3.9701,3.972,3.9898,3.9871,3.9877,3.9883,3.9898,3.9972,4.0035,3.9966,3.9968,3.9984,4.0095,4.0127,4.0138,4.0253,4.0182,4.0188,4.0193,4.0196,4.0437,4.0439,0,0,0,0,0,0,3.9687,3.9713,3.9894,3.9902,3.9788,3.9889,3.9905,3.9948,4.0034,4.0046,3.9986,3.9985,4.0116,4.0129,4.0143,4.0243,4.019,4.0196,4.0201,4.0435,4.0438,4.044,0,0,0,0,0,0,3.9682,3.9703,3.9888,3.9808,3.9832,3.9895,3.9942,3.9951,3.9983,4.0049,4.0061,4.0007,4.0115,4.0133,4.0215,4.0248,4.02,4.0206,4.0433,4.0436,4.0439,4.0442,0,0,0,0,0,0,3.9675,3.9701,3.9732,3.9809,3.9836,3.9958,3.9944,3.9955,3.9996,3.9996,4.0072,4.0083,4.0115,4.0204,4.0222,4.0257,4.0212,4.043,4.0434,4.0438,4.0439,4.0445,4.045,0,0,0,0,0,3.9666,3.9727,3.9734,3.9755,3.9876,3.996,3.9976,4.0012,3.9998,4.003,4.0073,4.0081,4.0241,4.0212,4.0233,4.027,4.0428,4.0433,4.0437,4.0437,4.0444,4.045,0,0,0,0,0,0,3.9651,3.9737,3.9746,3.9833,3.9889,3.9964,4.0005,4.0018,4.0078,4.0076,4.0117,4.0134,4.0215,4.025,4.0217,4.0352,4.0334,4.0343,4.0326,4.0333,4.0338,4.0329,4.0218,0,0,0,0,0,3.9658,3.972,3.9791,3.9861,3.9889,3.9942,3.998,4.0003,4.0062,4.0086,4.0135,4.0191,4.0255,4.0296,4.0357,4.0444,4.0462,4.048,4.0485,4.0489,4.0497,4.0547,4.0557,4.0455,4.0455,4.0455,0,0,3.9673,3.9728,3.9764,3.986,3.9906,3.9969,3.9962,4.0028,4.0075,4.0096,4.0177,4.0215,4.0281,4.0366,4.0406,4.0399,4.0529,4.0495,4.0498,4.0504,4.0553,4.0562,4.0571,4.0458,4.0458,4.0457,0,0,3.9733,3.978,3.9845,3.9891,3.9962,3.9997,4.0012,4.0086,4.0112,4.0194,4.0212,4.0268,4.0375,4.0423,4.0461,4.0539,4.055,4.0558,4.0586,4.0634,4.0642,4.0649,4.0679,4.0689,4.0565,4.0565,4.0565,0,3.9743,3.9839,3.9876,3.9942,3.9984,4.0007,4.0073,4.0116,4.0202,4.0231,4.0221,4.0358,4.0404,4.0502,4.0521,4.055,4.057,4.055,4.0638,4.0646,4.0653,4.0682,4.0693,4.0566,4.0566,4.0566,4.0566,0,3.9848,3.9914,3.9958,4.0042,4.0089,4.0155,4.0202,4.0244,4.0263,4.0299,4.0384,4.0439,4.0514,4.0538,4.0557,4.0639,4.0632,4.063,4.0612,4.0663,4.0691,4.0702,4.0567,4.0567,4.0566,4.0566,0,0,3.9903,4.0008,4.0024,4.0064,4.0143,4.0195,4.0261,4.0335,4.0372,4.043,4.0488,4.0579,4.0578,4.0621,4.0645,4.0687,4.0748,4.0679,4.0682,4.0692,4.0844,4.0847,4.0859,4.0754,4.0757,4.0758,4.0839,0,3.9974,4.0096,4.0131,4.0233,4.0295,4.0317,4.0376,4.0431,4.0466,4.0524,4.0562,4.0627,4.0619,4.0646,4.0689,4.0731,4.0779,4.0726,4.0809,4.0812,4.0794,4.0873,4.0877,4.095,4.085,4.0852,4.0853,0,4.0074,4.0136,4.0244,4.0317,4.0345,4.0397,4.0468,4.0522,4.0585,4.0608,4.0657,4.0677,4.0748,4.0725,4.0823,4.0786,4.0822,4.0848,4.0852,4.0863,4.0837,4.0888,4.0974,4.0986,4.087,4.0869,4.0868,0,4.0106,4.0216,4.0296,4.0329,4.0415,4.0452,4.0489,4.0551,4.0593,4.0655,4.0683,4.0751,4.0789,4.0842,4.088,4.086,4.0976,4.0956,4.0998,4.0997,4.1023,4.1021,4.1118,4.1042,4.1042,4.1042,4.1042,0,4.0183,4.0249,4.0312,4.0361,4.0436,4.0476,4.0548,4.0587,4.0641,4.0699,4.0721,4.0774,4.082,4.0879,4.091,4.0988,4.1004,4.1025,4.1032,4.1024,4.1022,4.105,4.1046,4.1045,4.1044,4.1044,4.1043,0,4.0232,4.0277,4.0366,4.0441,4.0461,4.0513,4.0577,4.0626,4.0662,4.0734,4.0753,4.081,4.0881,4.0924,4.1013,4.1033,4.112,4.1124,4.1099,4.1103,4.1143,4.114,4.1263,4.1282,4.1192,4.1193,4.1193,0,4.0279,4.0331,4.0412,4.0452,4.0491,4.0555,4.0599,4.064,4.0685,4.0761,4.0801,4.0873,4.0934,4.1046,4.1095,4.1163,4.1171,4.1209,4.1181,4.1172,4.1174,4.1171,4.1178,4.1215,4.1215,4.1216,4.1216,0,4.0359,4.0379,4.0442,4.0513,4.0565,4.0623,4.068,4.0712,4.0762,4.0811,4.0885,4.0932,4.1024,4.1096,4.1169,4.1207,4.1221,4.1225,4.1238,4.1232,4.1216,4.1227,4.1114,4.1222,4.1222,4.1221,4.1221,4.1221,4.0411,4.0458,4.0523,4.0593,4.064,4.0694,4.0744,4.0787,4.0849,4.0928,4.0948,4.1025,4.1087,4.1187,4.1227,4.1288,4.1282,4.1301,4.1307,4.1312,4.1314,4.1204,4.1301,4.1301,4.1301,4.1301,4.1301,0,4.0493,4.0536,4.06,4.068,4.0735,4.0743,4.0807,4.0853,4.0921,4.0978,4.1038,4.1122,4.1193,4.1247,4.1319,4.1358,4.1366,4.1375,4.1374,4.1383,4.1314,4.1296,4.1368,4.1368,4.1368,4.1368,4.1368,4.1368,4.0543,4.0625,4.0652,4.0758,4.08,4.0877,4.0913,4.0963,4.1009,4.1103,4.1162,4.1197,4.1254,4.133,4.1395,4.1409,4.1436,4.1445,4.146,4.1395,4.1388,4.1381,4.1364,4.145,4.145,4.1525,4.1526,4.1526]}]]